Theta_e
337 337 337 337 337 336 337 338 338 337 336 337 337 337 337 337 337 336 337 339 341 341 341 340 339 338 337 337 337 337 336 336 336 337 337 336 337 337 337 337 336 336 335 335 336 335 337 338 335 333 334 335 335 334 335 335 333 332 333 333 333 331 325
337 337 337 337 337 337 337 338 338 337 337 338 339 338 337 337 337 336 336 338 340 340 341 341 340 338 337 336 336 336 336 336 337 337 336 336 336 336 336 337 337 337 335 335 334 332 333 336 338 336 332 332 333 332 333 334 332 331 331 332 332 330 325
337 337 337 337 338 337 337 338 339 338 338 339 340 340 338 338 338 337 337 337 338 339 340 340 339 337 336 335 335 335 336 337 337 337 336 335 335 336 336 336 337 337 335 333 332 332 331 331 335 335 329 329 331 330 331 332 332 331 330 330 330 330 326
337 337 337 338 338 338 338 338 339 339 339 340 340 340 340 340 340 339 338 338 338 339 340 340 338 337 335 334 334 334 335 337 337 337 336 336 336 336 336 337 337 337 336 335 333 333 332 330 332 333 329 328 330 329 328 330 331 331 330 330 330 331 328
338 338 338 338 338 338 338 339 339 340 340 340 340 341 340 341 341 340 340 340 339 340 340 340 338 336 335 334 334 334 336 337 337 336 336 337 337 337 337 337 338 338 336 336 335 334 333 332 332 333 331 329 330 329 328 329 330 330 330 330 330 331 328
338 338 338 338 339 339 339 339 340 340 340 340 340 340 341 341 341 341 340 340 340 340 340 339 337 335 335 334 334 336 338 338 338 337 337 337 338 338 339 339 339 338 337 336 336 335 333 331 329 330 330 329 330 329 328 328 328 329 329 329 330 330 329
339 339 338 338 339 339 339 339 340 340 340 340 340 340 341 341 341 341 341 341 341 341 340 339 337 336 336 335 334 336 339 339 338 339 338 338 338 339 339 339 339 338 338 337 336 335 334 332 330 330 330 329 328 327 327 327 327 328 329 329 329 329 329
339 339 338 338 339 339 339 340 340 340 340 340 340 340 341 341 341 341 341 341 341 341 339 338 337 336 336 335 335 336 338 339 339 340 340 339 338 339 338 339 339 339 338 338 337 336 335 334 333 332 329 330 330 328 326 326 327 328 328 328 328 327 327
339 339 339 338 339 339 339 339 340 340 340 340 340 341 341 341 341 341 341 341 341 340 339 338 337 337 336 336 336 335 336 338 339 339 341 340 339 339 339 339 339 339 338 337 337 336 336 335 335 333 330 329 331 331 328 327 327 327 327 328 327 326 326
340 340 339 339 339 339 339 339 340 340 340 341 341 341 341 341 341 341 341 341 340 340 339 338 337 336 336 336 337 336 336 336 337 338 339 340 340 340 340 340 339 339 338 337 337 337 335 334 333 333 332 329 329 331 331 330 328 327 327 327 327 326 326
340 340 340 339 339 339 339 339 339 340 340 340 341 340 340 340 341 341 340 341 340 340 339 338 337 336 336 336 337 337 337 336 337 338 338 339 340 341 340 340 339 338 338 337 337 336 335 334 333 332 332 331 329 329 330 330 329 328 327 327 327 327 326
340 341 340 340 339 339 339 339 339 339 340 340 340 340 340 340 340 340 340 340 340 340 339 338 337 336 335 336 337 338 338 338 338 338 339 340 340 340 340 339 339 338 338 337 336 336 335 334 333 332 332 331 329 329 328 328 329 328 327 327 327 327 327
340 340 340 340 340 339 339 339 339 339 339 340 340 340 340 340 340 340 340 340 340 340 339 338 337 336 336 337 337 338 338 338 339 339 340 341 341 340 339 338 338 337 337 337 336 335 334 333 332 333 332 331 330 330 329 327 327 328 327 327 327 327 327
339 340 340 340 340 339 339 339 339 339 339 339 340 340 340 340 340 340 339 339 339 339 339 338 337 336 336 337 337 338 339 339 340 340 341 341 341 340 338 337 337 337 337 337 336 335 333 332 331 331 332 331 331 330 329 327 327 327 326 325 326 326 326
340 340 340 340 340 339 339 339 339 339 339 339 340 339 340 340 339 340 339 339 339 339 339 338 337 337 337 337 338 338 339 340 341 340 341 341 341 340 338 337 337 337 337 337 336 335 333 331 330 330 331 331 331 330 329 327 327 326 325 324 325 325 325
340 340 340 340 339 339 339 339 339 339 339 339 339 339 339 339 339 339 339 339 339 339 338 338 337 337 337 337 338 338 338 340 341 341 341 342 341 340 338 338 337 337 337 337 335 334 332 330 329 330 330 331 331 330 329 328 327 326 324 323 324 325 325
340 341 340 339 339 339 339 339 339 339 339 339 340 339 339 339 339 339 339 339 339 338 338 338 337 337 337 338 338 338 338 339 340 341 342 341 341 339 338 337 337 337 336 336 334 332 331 330 329 329 330 331 331 331 330 329 328 327 325 324 323 323 324
339 339 339 338 339 339 339 340 339 338 339 339 339 339 339 339 339 339 339 338 338 338 338 338 337 337 337 338 338 338 338 339 340 341 341 340 339 338 338 338 337 337 336 334 333 331 329 329 329 329 330 330 330 330 330 329 328 328 327 325 323 321 321
334 334 335 336 337 339 340 340 339 339 339 339 339 339 339 339 338 339 339 338 338 338 338 338 338 338 338 338 338 338 339 339 340 340 339 338 338 338 337 338 337 336 335 333 331 329 328 328 329 329 329 329 329 329 329 328 328 327 326 325 323 320 318
332 332 333 334 336 338 339 340 340 339 340 339 338 338 339 339 338 339 339 339 338 338 338 338 338 338 338 338 338 339 339 339 340 339 338 338 338 338 337 337 337 336 334 331 329 328 328 327 327 327 326 326 327 327 327 327 327 326 325 324 322 320 318
332 332 333 334 336 338 339 340 340 340 340 339 337 337 339 339 338 339 339 338 338 338 338 339 338 338 339 338 339 338 338 338 338 337 337 338 338 338 337 337 336 335 332 329 328 328 327 326 326 325 324 324 325 326 326 326 326 326 325 324 321 319 318
333 334 335 335 337 338 339 341 340 340 339 338 338 339 339 339 339 339 339 339 339 339 339 338 338 338 339 338 338 338 337 337 337 336 337 338 338 338 337 336 335 333 331 329 328 328 327 325 324 324 324 324 324 325 325 325 325 325 324 322 320 319 317
334 335 336 337 338 339 340 340 340 339 338 338 338 339 339 339 339 340 340 339 339 339 339 338 338 338 339 338 337 338 338 337 336 336 337 338 338 338 337 334 332 331 329 328 328 327 326 324 323 322 323 324 324 324 324 324 324 324 324 322 320 318 317
335 336 337 338 339 340 340 340 340 339 339 339 339 340 339 340 340 340 340 339 339 339 339 338 338 338 339 338 337 338 338 337 336 337 338 338 338 337 335 332 330 329 328 328 327 326 325 322 321 321 321 322 322 322 322 322 322 323 323 322 320 319 318
336 337 338 339 339 340 340 340 340 339 339 339 340 340 340 340 340 340 340 339 339 339 338 338 338 339 340 338 337 338 338 337 337 337 338 338 338 337 334 331 329 329 328 327 326 326 323 321 320 319 319 319 319 319 320 320 320 321 321 321 320 319 319
337 337 338 339 339 340 340 340 340 340 340 340 340 340 340 339 340 340 340 339 339 338 338 338 339 340 340 339 338 339 338 337 337 338 338 337 337 336 334 331 330 328 328 327 326 325 323 320 318 318 319 318 317 317 317 317 318 319 319 320 320 320 320
337 337 337 338 339 340 340 339 339 340 340 341 341 340 340 340 340 340 340 340 339 338 339 339 340 340 340 340 340 339 339 338 337 337 337 337 337 335 333 332 330 328 327 326 325 323 322 319 318 318 318 317 316 316 316 317 317 317 318 318 319 319 319
336 337 337 338 339 339 340 339 340 340 340 341 341 340 339 340 340 340 341 340 339 339 339 340 340 340 340 340 340 340 339 338 337 336 337 337 336 335 332 331 329 327 326 325 324 323 322 320 319 318 316 315 315 316 316 316 317 316 317 317 317 318 318
337 337 337 338 339 339 339 339 340 340 340 340 340 339 339 340 340 341 340 340 339 339 340 341 341 341 340 340 339 340 339 337 336 336 337 336 335 333 331 329 327 326 325 324 323 322 320 319 319 317 315 313 313 314 315 315 315 315 315 315 315 315 315
337 337 338 338 338 338 339 339 339 340 340 339 338 338 340 340 340 340 340 340 340 340 341 341 341 341 340 339 338 339 338 337 336 336 336 335 332 331 329 327 326 325 324 323 323 321 319 318 317 316 314 313 313 313 312 313 312 312 312 313 313 312 312
337 338 337 337 337 338 338 339 339 339 340 339 338 339 340 340 339 339 340 340 341 341 341 341 340 340 340 339 338 338 337 336 336 336 334 332 330 328 327 326 325 324 324 323 322 319 318 317 316 315 313 313 312 312 311 310 310 310 310 311 311 311 311
338 337 337 337 337 338 338 339 339 339 339 339 339 340 340 339 338 339 339 339 340 340 340 340 340 339 339 339 338 337 337 337 336 334 331 330 328 326 326 325 324 324 323 322 321 318 317 317 316 315 313 312 311 311 310 310 309 309 310 310 310 310 310
339 338 337 337 337 338 338 339 338 338 338 339 340 340 339 338 338 338 338 339 338 339 340 340 338 338 339 338 337 337 336 336 334 332 330 328 326 325 325 324 323 322 322 321 319 318 317 316 316 314 313 313 312 310 310 309 309 309 310 309 309 309 308
338 338 338 337 337 338 338 338 338 338 339 338 338 338 337 337 338 337 337 337 337 337 339 339 338 338 338 337 336 336 335 334 332 331 329 327 325 324 323 323 321 321 320 319 318 318 317 316 315 314 313 313 311 310 310 309 308 308 308 307 306 305 305
338 338 337 337 337 337 337 337 338 339 338 337 336 336 335 336 336 335 334 335 335 335 336 337 337 338 337 336 336 335 334 333 331 330 328 326 324 322 321 320 320 320 320 318 318 318 317 316 314 313 313 312 310 309 309 308 307 306 306 305 304 304 304
338 337 337 337 337 337 337 337 337 337 337 336 334 333 332 333 334 330 329 331 333 332 333 334 336 337 336 335 335 334 333 332 330 329 328 325 322 321 320 319 319 319 319 318 318 317 316 315 313 313 313 311 309 308 308 307 306 304 303 303 304 304 304
338 337 337 337 338 338 337 336 335 336 337 334 332 330 330 331 332 327 325 327 330 331 332 332 334 336 336 335 334 333 332 330 329 328 327 325 322 321 320 320 320 319 318 318 317 316 315 314 313 313 313 310 308 307 306 305 303 302 302 303 304 304 303
Wind_Speed
27 26 27 28 28 29 29 29 29 30 30 29 30 30 28 28 27 27 28 27 27 25 23 22 21 19 17 16 17 16 14 12 11 10 9 9 8 8 8 10 12 13 13 11 9 6 2 2 3 7 13 19 19 20 22 23 21 21 22 23 23 22 21
26 25 25 26 27 29 30 29 29 30 30 30 30 29 27 26 26 27 28 29 28 26 25 24 23 21 19 18 18 17 15 13 12 11 10 9 9 9 9 9 10 11 11 10 10 9 5 4 3 2 8 14 16 18 23 25 22 21 23 23 24 23 23
25 24 24 24 27 29 29 29 29 31 31 31 30 28 27 26 26 27 28 29 27 26 26 25 23 21 20 19 18 17 15 13 12 11 10 9 9 11 11 11 10 10 8 5 7 9 6 5 4 4 7 11 10 11 17 23 25 24 23 21 22 23 25
26 25 24 25 27 28 29 29 29 31 31 31 30 28 27 28 27 27 28 28 26 26 26 24 22 21 20 19 17 16 15 14 12 11 10 10 11 12 13 12 12 13 12 9 10 12 9 6 4 5 9 12 12 11 11 14 20 22 22 21 21 23 26
28 27 27 27 28 29 29 28 29 30 31 30 29 29 28 29 28 28 29 27 26 27 26 24 22 20 18 17 16 16 15 13 12 10 10 11 12 13 13 12 12 15 17 16 16 16 14 12 10 7 10 11 10 10 10 9 13 18 20 21 22 22 24
30 29 29 29 29 30 30 29 29 30 30 30 30 30 29 29 29 29 29 28 27 27 26 24 21 19 16 14 14 14 12 11 10 10 11 11 12 13 11 11 11 14 17 19 19 19 17 17 15 11 13 12 7 7 8 9 10 13 16 21 22 22 23
33 31 30 30 30 30 30 30 31 32 31 31 31 31 30 30 30 30 29 28 27 26 25 24 20 18 16 13 13 13 10 9 9 9 10 12 13 13 12 12 13 15 17 18 18 19 18 17 17 14 10 8 7 6 6 7 9 10 12 17 20 21 21
34 33 31 30 30 30 30 30 31 32 32 33 32 30 29 29 30 30 30 28 27 26 25 22 20 17 16 14 14 14 12 10 9 8 9 11 13 13 13 13 14 15 16 17 17 17 19 19 19 18 12 5 4 5 5 6 8 11 12 14 16 18 19
31 31 30 29 28 29 29 29 30 31 33 33 31 29 29 29 30 31 30 28 27 26 24 22 19 18 16 14 14 15 15 13 11 10 8 9 11 11 12 12 14 15 15 15 15 16 17 18 18 19 15 11 6 3 3 5 6 9 13 13 14 17 19
28 28 29 28 27 26 27 28 30 31 32 32 30 28 28 29 30 31 29 28 27 26 24 22 20 18 15 14 13 14 15 15 14 13 11 10 11 11 12 12 14 15 14 14 14 14 13 12 13 15 15 14 12 5 2 4 5 7 10 13 15 16 18
29 28 27 27 26 26 26 27 29 30 31 31 29 28 28 29 30 30 28 27 27 26 24 22 20 18 15 13 13 13 14 14 14 14 13 13 12 12 13 12 13 14 13 11 11 10 10 8 9 10 11 13 15 11 6 3 4 6 9 12 16 17 18
29 29 27 26 26 27 28 28 28 30 30 30 29 29 29 29 29 28 27 26 26 26 24 22 20 17 14 13 13 13 13 13 14 14 14 13 13 12 13 12 12 14 12 9 8 8 7 6 6 7 8 10 14 17 14 7 3 5 8 12 16 18 17
25 26 27 26 26 27 29 29 29 30 29 29 28 28 28 28 28 26 26 25 25 25 24 22 21 18 15 14 13 13 13 14 14 14 14 13 12 12 12 11 11 11 10 9 9 7 5 4 4 6 8 9 13 16 17 13 6 4 8 10 13 16 16
22 23 24 24 24 26 27 29 30 29 29 28 28 28 28 28 27 25 24 24 24 25 24 23 22 19 16 15 14 13 13 14 15 15 14 12 12 12 12 10 9 7 7 9 9 8 5 3 4 6 8 10 13 14 15 16 11 6 7 8 10 13 15
26 25 24 24 23 23 25 28 30 29 28 28 28 28 28 28 27 25 24 24 23 24 25 24 22 20 17 16 14 13 12 13 15 16 15 13 12 13 11 8 6 5 5 7 8 8 6 3 3 6 8 11 14 14 14 15 13 9 7 7 8 11 14
32 29 28 28 26 25 25 28 29 29 29 28 28 28 28 28 27 25 24 23 23 24 25 24 22 20 18 17 15 13 13 14 16 16 15 14 14 12 9 6 4 4 4 6 7 7 6 5 5 6 8 11 13 14 14 15 14 12 9 8 9 11 13
33 31 32 32 30 28 26 27 29 29 29 29 29 29 28 28 27 25 23 23 23 24 24 23 22 20 18 17 15 14 14 16 16 16 16 15 13 9 6 5 4 3 3 4 5 5 5 6 7 8 9 11 12 13 13 14 15 14 11 9 10 12 13
33 35 36 33 31 29 27 26 28 29 29 30 30 29 28 28 28 25 22 21 23 23 23 22 21 19 18 17 15 14 15 16 17 17 15 14 11 7 4 4 4 3 3 4 4 4 5 5 6 7 8 9 10 12 12 13 15 15 13 11 11 11 12
35 37 37 33 29 28 27 27 29 30 30 30 30 28 27 29 29 24 19 19 21 21 21 20 19 18 17 15 14 13 14 15 16 16 15 13 10 7 4 3 4 4 4 4 3 3 5 4 4 5 6 6 8 10 11 12 13 15 14 12 11 11 12
36 35 34 31 29 29 28 28 30 31 31 30 28 27 27 29 28 21 16 17 20 19 19 18 17 16 15 13 12 12 12 13 14 15 16 13 9 6 4 5 5 5 4 3 2 4 6 5 5 5 6 7 8 9 10 11 12 13 13 12 11 11 12
36 33 30 28 29 30 29 30 30 30 30 29 28 27 27 29 27 20 16 18 20 20 19 18 16 15 14 13 13 13 14 16 13 12 14 12 9 7 6 6 7 6 5 3 3 5 5 5 5 6 6 7 8 10 11 12 12 12 12 12 11 11 12
29 27 26 27 30 31 29 29 30 30 29 28 28 28 27 28 26 19 17 20 21 21 21 19 17 15 14 14 15 15 16 16 11 9 12 12 9 8 7 7 6 6 4 3 3 5 5 4 5 5 5 5 6 8 10 11 12 12 12 12 10 10 12
24 24 26 28 30 29 28 29 29 29 28 29 29 28 27 29 25 18 17 21 22 22 21 19 17 16 15 15 15 15 14 12 8 9 13 13 11 10 9 7 6 3 3 4 4 6 6 5 4 5 5 4 4 5 6 7 9 10 12 12 12 12 14
25 27 28 30 29 28 28 29 28 28 28 29 29 28 28 29 23 16 18 21 22 22 21 20 18 16 15 16 15 13 12 10 9 11 14 13 12 12 11 10 8 3 4 6 6 7 8 7 6 6 5 4 4 5 6 6 6 8 10 11 12 14 15
27 28 29 30 29 29 29 28 28 28 28 28 28 28 29 28 20 15 17 19 20 21 20 19 17 14 13 15 14 12 12 11 11 14 15 12 12 14 13 12 9 5 4 6 7 8 8 8 7 7 6 5 5 5 5 5 5 6 8 9 11 14 15
28 28 29 29 28 29 29 28 27 28 27 28 28 28 29 25 17 13 16 17 18 19 18 16 15 12 12 11 10 11 11 10 13 16 14 12 13 14 13 12 10 8 7 8 9 10 10 10 10 8 6 5 5 5 5 4 4 4 6 7 10 12 13
27 27 28 28 28 28 27 27 28 27 27 28 28 29 27 21 14 12 14 16 18 19 17 15 13 12 11 10 10 12 11 11 14 16 14 13 13 14 13 13 12 11 10 10 11 11 12 12 11 8 7 6 5 5 4 3 3 2 3 4 6 8 9
27 27 28 28 28 28 27 28 28 28 29 30 29 29 25 17 12 12 14 16 18 19 17 15 12 11 11 12 13 14 13 13 16 17 15 14 14 14 14 13 12 11 11 11 12 12 12 12 10 8 7 6 5 5 4 3 3 2 2 2 2 3 5
28 28 29 29 29 29 29 29 29 30 30 30 30 28 21 13 11 13 15 17 19 19 17 14 12 10 12 14 15 15 15 17 18 17 15 14 14 14 13 12 11 11 11 11 12 13 13 12 10 8 8 7 6 6 5 5 4 4 3 3 3 3 4
29 29 29 29 29 29 30 30 31 31 31 30 29 25 16 11 11 14 16 18 19 18 16 14 12 12 14 16 17 17 18 19 17 15 14 14 14 13 12 11 11 11 11 12 13 14 13 12 10 9 9 8 8 8 8 8 8 7 7 6 6 5 5
30 29 29 29 29 29 30 31 32 32 32 30 26 19 13 12 13 14 17 20 20 18 16 14 14 15 17 18 19 20 21 19 17 15 14 14 14 13 12 12 11 11 12 14 15 15 14 12 10 9 9 9 10 11 11 11 10 9 9 8 7 7 7
29 28 27 27 27 29 31 31 31 31 30 26 19 14 13 14 15 17 19 21 20 18 16 14 15 17 19 20 20 22 21 18 16 15 15 15 15 13 12 13 12 12 13 15 17 16 14 11 10 10 10 10 12 12 12 11 9 8 8 7 6 6 6
27 26 25 25 26 28 29 29 30 29 25 19 14 13 14 15 17 20 21 22 20 17 16 15 16 19 21 21 22 22 19 17 16 16 16 16 16 15 14 13 12 12 13 15 16 15 13 11 10 10 9 10 11 12 12 10 8 6 5 5 5 5 5
25 25 24 24 24 25 27 28 27 23 19 15 14 15 16 19 21 22 22 21 20 18 17 17 19 22 22 22 22 20 16 15 16 17 17 17 17 15 14 13 12 13 14 15 15 14 13 11 10 9 8 8 8 11 12 10 8 6 5 6 6 6 6
23 23 23 23 23 24 24 22 19 17 17 17 18 18 20 23 23 20 19 19 19 18 17 18 21 24 23 23 21 17 15 16 17 17 17 18 17 14 13 12 13 14 15 16 16 14 13 11 10 9 8 7 8 10 10 9 8 8 8 8 8 9 8
24 23 23 24 24 22 20 18 16 16 18 19 20 20 22 23 21 17 16 17 18 17 17 19 22 25 23 20 18 15 16 18 17 16 17 19 17 15 13 13 14 15 16 16 16 14 13 11 10 9 9 8 9 10 10 10 10 10 10 11 11 11 11
25 25 24 23 21 18 17 18 18 17 18 19 20 20 21 22 20 17 15 15 17 17 18 19 22 23 20 17 16 17 19 19 16 15 16 17 16 15 15 15 15 15 16 16 15 14 13 12 10 10 9 9 10 11 11 11 11 12 12 12 12 13 13
Wind_Direction
200 205 210 213 216 214 213 214 214 216 219 221 223 223 223 224 226 226 226 225 228 233 236 237 239 241 240 237 234 235 235 235 233 230 233 240 241 246 252 251 252 255 256 253 249 242 237 269 235 214 229 236 233 231 240 244 235 230 230 225 224 217 205
205 209 213 213 213 213 211 212 212 214 218 220 223 223 223 223 225 226 227 226 228 232 235 237 239 240 240 237 235 236 236 234 233 231 235 246 252 253 255 255 256 256 254 253 251 239 216 228 250 214 223 235 239 235 240 246 241 234 233 229 228 221 209
205 208 211 210 209 209 209 209 210 211 215 217 219 222 223 223 222 225 227 226 229 233 235 237 238 240 240 240 240 241 241 239 234 231 239 255 262 260 257 254 252 249 239 223 227 228 218 223 247 265 240 234 241 235 232 241 240 234 234 232 230 227 217
203 204 204 204 205 205 207 208 207 209 213 215 217 219 222 224 224 225 226 227 230 233 235 236 239 242 242 243 245 246 244 240 234 232 243 256 261 260 258 257 258 257 251 236 229 231 226 226 245 268 255 248 256 253 240 245 241 233 234 233 232 230 221
203 202 202 202 202 204 205 205 205 207 212 214 216 218 221 224 226 226 226 228 231 233 234 237 241 243 244 245 247 246 243 237 231 231 242 253 257 256 258 266 271 270 267 262 255 246 239 242 252 265 267 261 265 262 250 249 244 232 229 229 231 232 224
202 203 203 204 205 205 205 203 203 206 210 211 214 217 221 225 227 226 227 229 232 234 235 237 240 242 244 246 244 240 237 233 231 235 245 253 256 257 261 272 276 276 280 279 271 260 248 241 237 246 266 262 255 269 258 242 238 234 229 227 230 232 227
200 202 204 206 207 207 207 205 205 208 210 212 214 217 221 225 228 229 230 232 234 235 235 236 239 242 246 245 238 236 236 236 238 244 252 257 258 260 265 273 276 280 285 285 278 267 257 243 228 229 255 267 252 263 268 245 230 227 229 230 229 228 226
199 201 204 208 210 210 210 209 209 211 213 215 216 219 220 223 228 230 231 232 234 235 234 235 239 243 245 242 237 237 238 240 248 255 260 262 261 263 270 276 278 282 285 284 280 273 263 258 252 243 235 238 261 260 255 246 232 228 231 229 226 224 222
201 201 203 208 212 213 214 214 214 215 216 217 217 218 221 223 227 230 230 232 234 235 234 236 241 245 245 241 239 238 239 242 252 261 268 270 267 270 277 281 282 284 287 286 283 281 271 265 268 261 238 213 220 248 244 241 234 233 234 226 221 221 220
203 205 206 209 213 216 217 217 217 217 218 218 218 218 221 223 226 228 229 232 234 234 235 237 243 247 245 242 240 240 240 244 252 259 265 271 274 278 281 282 284 285 287 288 289 293 289 279 274 272 257 236 231 230 229 245 239 229 227 222 219 218 217
206 210 211 212 215 218 220 219 218 219 219 220 220 220 220 222 225 227 229 232 234 234 236 238 243 247 243 240 241 243 244 247 253 256 259 267 273 278 279 279 281 284 287 291 295 300 303 300 287 280 279 264 247 234 223 244 256 238 221 218 224 224 218
206 208 211 213 215 218 222 223 221 222 222 222 222 221 221 222 224 225 228 231 233 234 235 238 243 245 240 238 243 249 251 253 254 254 258 264 268 273 275 273 277 285 291 292 296 304 308 308 301 294 294 274 248 239 238 237 251 250 229 221 228 230 224
200 204 207 212 216 218 221 224 225 225 224 223 222 222 222 222 222 223 226 229 231 232 233 236 242 243 239 240 246 253 258 259 256 255 257 260 267 272 270 270 279 288 295 296 298 308 316 307 291 284 282 268 252 249 245 235 229 244 236 233 234 230 224
191 196 202 208 217 220 219 223 227 226 223 222 221 221 223 223 222 222 224 227 229 231 232 235 239 241 239 241 246 255 262 261 257 255 255 261 274 273 264 272 288 285 282 292 303 313 316 294 265 260 263 261 258 257 243 228 226 234 234 235 232 223 218
191 193 198 202 211 218 219 222 226 224 221 221 221 222 224 224 224 222 223 227 228 230 231 233 237 240 239 240 244 252 260 263 261 257 257 267 277 270 264 277 288 270 271 290 303 310 308 295 265 255 256 255 255 255 242 227 227 229 222 216 213 212 211
197 200 202 202 204 211 216 222 224 222 221 222 222 223 224 225 224 222 222 225 228 229 230 232 237 239 238 239 242 248 258 265 266 263 264 272 272 265 267 280 269 253 276 296 298 296 291 281 269 258 260 260 256 254 243 230 229 227 213 203 208 210 207
202 205 206 206 204 204 207 216 222 222 221 223 223 223 223 224 224 221 220 224 228 229 230 232 235 236 235 236 238 247 258 263 267 269 269 270 266 261 264 269 264 264 276 286 289 288 285 274 261 251 254 259 258 256 248 235 231 229 219 207 210 215 211
205 205 205 205 203 200 201 210 220 222 221 223 223 221 221 223 223 220 219 225 229 230 231 232 232 231 230 230 236 246 255 262 267 267 266 267 265 260 262 270 276 278 273 271 265 273 287 274 251 249 251 251 251 250 246 238 228 225 225 218 212 211 210
207 206 202 199 197 197 200 209 217 220 222 223 221 219 220 222 222 219 221 228 232 233 233 233 232 231 228 229 234 242 253 262 263 262 265 270 267 258 263 280 281 273 262 248 230 261 289 265 232 246 253 244 240 237 236 234 224 219 222 221 213 206 203
212 210 203 196 196 197 202 209 215 217 220 221 218 216 220 222 221 219 222 228 229 230 230 229 228 228 227 227 225 228 240 246 251 263 268 260 249 248 264 274 269 255 234 222 246 288 285 260 243 258 260 247 239 233 225 217 210 210 214 211 208 204 197
214 211 203 197 197 198 202 209 213 214 215 217 217 218 221 222 218 214 217 222 223 224 222 219 221 224 226 228 227 228 232 231 238 263 263 246 235 243 258 263 253 234 215 220 295 289 268 258 260 258 251 241 235 232 227 218 212 213 212 206 204 201 187
209 205 200 196 196 197 201 207 208 208 211 214 216 218 221 220 214 211 215 219 221 222 221 219 222 224 227 232 235 234 232 228 225 234 240 238 237 239 246 248 234 224 217 215 274 273 252 253 263 250 236 225 217 223 228 226 223 217 209 203 198 192 180
201 197 196 195 194 194 198 202 203 205 209 212 214 216 218 216 213 213 217 219 222 224 225 227 227 227 229 230 228 226 229 229 209 202 221 232 234 232 233 221 204 221 252 227 235 249 232 219 230 236 234 218 208 223 225 222 222 215 208 203 195 187 181
198 196 195 193 191 189 193 197 199 202 204 207 211 213 215 213 211 214 219 223 228 230 230 231 230 230 229 222 217 213 212 210 195 197 215 227 231 229 220 205 196 216 267 244 229 227 212 199 208 219 216 209 217 234 235 232 230 222 214 208 200 195 192
197 197 193 189 185 185 188 192 195 197 200 204 208 211 213 211 209 214 223 229 236 237 236 235 233 232 225 219 219 209 191 187 194 204 213 224 232 226 214 205 202 207 244 240 223 215 203 193 203 209 203 205 217 224 231 235 235 233 228 218 206 204 206
196 194 189 183 180 180 183 187 192 196 200 204 208 210 211 210 207 216 225 231 237 237 236 236 235 231 223 218 215 202 188 191 203 209 216 226 229 222 214 212 208 205 219 219 208 207 203 196 198 205 210 220 222 220 222 220 219 235 242 232 223 220 220
190 187 183 178 176 177 182 188 192 197 201 204 206 208 209 207 206 217 228 233 235 233 231 233 234 230 223 214 204 200 202 209 213 216 223 227 225 223 222 224 221 212 207 204 200 201 201 197 197 204 213 216 207 204 204 191 182 193 211 223 232 235 232
182 179 176 174 175 179 184 188 192 198 203 206 206 206 206 205 206 219 230 233 233 232 231 230 228 225 220 210 202 205 213 219 218 219 220 219 221 224 222 222 220 209 201 200 201 201 201 201 201 205 205 197 184 181 177 169 158 141 145 171 193 206 213
176 174 174 173 176 180 184 188 193 199 203 205 205 204 203 205 212 220 229 232 231 231 232 229 223 219 216 210 204 207 216 220 219 217 216 217 217 216 215 215 210 203 202 202 200 201 202 202 203 203 194 176 165 164 154 144 137 129 132 134 130 142 153
174 174 175 176 177 180 183 189 194 198 201 201 201 199 197 205 216 221 227 229 229 231 233 230 223 216 209 205 204 207 211 213 214 215 217 217 212 207 206 206 201 201 204 201 200 202 202 202 202 198 185 166 156 152 141 136 137 132 130 126 118 115 112
174 176 178 177 178 180 184 190 194 197 200 201 198 195 194 201 211 220 227 229 229 231 233 230 222 213 205 200 202 205 205 205 208 213 212 207 202 199 199 197 196 206 212 207 203 202 199 201 203 195 183 166 155 149 141 140 140 133 128 124 116 112 104
173 176 176 175 178 181 184 190 194 197 201 204 200 195 193 196 205 216 225 229 230 230 233 232 222 209 199 195 199 202 202 203 207 208 204 200 195 192 194 196 196 207 216 210 203 199 197 201 204 195 185 171 158 151 148 146 143 136 131 124 116 114 108
173 175 174 175 179 182 186 190 192 193 198 202 199 195 196 199 207 215 220 224 225 224 228 229 215 201 193 191 196 200 201 204 209 208 202 198 194 188 189 195 196 203 212 207 200 197 197 201 203 197 188 177 163 158 156 153 150 146 141 129 118 116 115
172 172 174 175 178 183 188 190 188 189 193 192 189 194 197 203 211 212 213 217 218 216 222 219 203 192 188 190 196 200 202 209 217 213 202 194 192 189 189 193 193 197 203 202 200 200 197 198 204 201 190 178 164 159 158 156 154 149 138 127 118 113 117
169 168 171 175 178 182 186 186 186 190 190 183 182 189 195 203 208 204 202 212 214 211 214 209 195 188 187 189 195 201 208 219 225 218 201 191 188 188 190 192 190 191 197 201 202 202 196 193 198 197 187 176 163 158 157 153 147 139 129 123 119 116 118
168 170 174 180 183 182 179 178 180 189 190 180 176 182 190 197 200 188 185 203 211 208 208 201 191 189 189 190 196 206 217 225 229 220 205 194 188 186 187 188 185 187 194 200 203 202 194 189 192 191 184 177 166 158 155 149 143 135 128 126 124 121 120
168 172 176 179 181 178 174 171 174 188 195 181 171 174 181 189 190 172 161 180 199 206 209 201 190 191 195 197 203 213 222 226 227 221 211 201 193 188 186 185 185 187 193 197 200 199 191 186 187 186 182 177 169 163 157 150 142 136 132 133 130 122 118